Погода в Советском

Россия / Республика Крым     45°20′25″N   34°55′44″E
темп.,
°C
ветер,
м/с
пор.,
м/с
влажн.,
%
обл.,
%
осадки,
мм/ч
давл.,
гПа
погр.,
м
21 апреля, ср
ср2100:00+9зюз8138477 0.0 1012526
03:00+9зюз51181100 0.0 1014344
06:00+9юз5117799 0.0 1015276
09:00+13зюз576389 0.0 1017676
12:00+16юз3552100 0.9 10171879
15:00+14зюз356343 2.2 1018862
18:00+14з566314 0.7 1018875
21:00+9з33813 0.8 102035
22 апреля, чт
чт2200:00+8ююз11850 0.0 102011
03:00+7ю11885 0.0 102111
06:00+7з11883 0.0 102111
09:00+13в116571 0.0 1022434
12:00+16всв235180 0.0 10221816
15:00+15вюв325656 0.2 1022861
18:00+16зсз345724 0.4 1022645
21:00+10з33790 0.5 102332
23 апреля, пт
пт2300:00+9ююз11830 0.0 102311
03:00+8ююв22830 0.0 102215
06:00+8ююз22845 0.0 102218
09:00+14ю345784 0.0 1021468
12:00+18ю5642100 0.0 10201364
15:00+17ю6748100 0.0 10191166
18:00+13ююв51063100 0.0 1018557
21:00+11ююз3565100 0.0 1018127
24 апреля, сб
сб2400:00+10ю356772 0.0 101886
03:00+9юз336946 0.0 101735
06:00+8з4977100 0.0 1018243
09:00+11зсз677275 0.0 1019931
12:00+14сз56495 0.0 10201549
15:00+15зсз363924 0.0 10191976
18:00+14сз254828 0.0 10201186
21:00+9зсз3765100 0.0 1022200
25 апреля, вс
вс2500:00+7з3575100 0.0 1022141
03:00+6зсз3477100 0.0 1021106
06:00+6зсз2277100 0.0 102242
09:00+9ссз2454100 0.0 1021569
12:00+11с3445100 0.0 10201179
15:00+11св5548100 0.0 10191198
18:00+10св2250100 0.0 1019391
21:00+6ююз1159100 0.0 101910